FW6626 Weather Reports


Display with metric or nautical units.
time (UTC)temp
F
wind
direction
speed
MPH
gust
MPH
rain 1hr
in
rain 24hr
in
rain mn
in
humidity
%
barometer
mb
20260904014606 69 265 2.0 5.0 0.00 0.00 0.00 75 1012.8
20260904013118 70 241 3.0 9.0 0.00 0.00 0.00 74 1012.9
20260904011626 71 240 4.0 9.0 0.00 0.00 0.00 72 1012.9
20260904010057 71 0 4.0 12.0 0.00 0.00 0.00 72 1013.0
20260904004600 72 250 5.0 12.0 0.00 0.00 0.00 71 1012.9
20260904003057 73 261 4.0 12.0 0.00 0.00 0.00 69 1013.0
20260904001554 73 292 6.0 12.0 0.00 0.00 0.00 70 1013.1
20260904000104 73 252 4.0 15.0 0.00 0.00 0.00 70 1013.1
20260903234557 73 253 5.0 13.0 0.00 0.00 0.00 68 1013.1
20260903233056 73 269 6.0 14.0 0.00 0.00 0.00 70 1013.2
20260903231554 74 257 6.0 13.0 0.00 0.00 0.00 71 1013.4
20260903230058 74 246 7.0 13.0 0.00 0.00 0.00 72 1013.3
20260903224601 75 360 6.0 13.0 0.00 0.00 0.00 71 1013.4
20260903223059 75 360 4.0 13.0 0.00 0.00 0.00 71 1013.5
20260903221559 75 238 6.0 12.0 0.00 0.00 0.00 71 1013.6
20260903220104 75 235 7.0 14.0 0.00 0.00 0.00 71 1013.7
20260903214610 75 268 8.0 13.0 0.00 0.00 0.00 71 1013.8
20260903213057 75 203 5.0 16.0 0.00 0.00 0.00 71 1013.8
20260903211604 75 229 7.0 16.0 0.00 0.00 0.00 70 1014.0
20260903210140 76 246 6.0 13.0 0.00 0.00 0.00 70 1014.0
20260903204606 76 360 5.0 13.0 0.00 0.00 0.00 69 1014.0
20260903203057 76 242 6.0 13.0 0.00 0.00 0.00 68 1014.2
20260903201558 76 257 5.0 12.0 0.00 0.00 0.00 69 1014.2
20260903200105 77 245 5.0 11.0 0.00 0.00 0.00 68 1014.2
20260903194559 76 227 4.0 13.0 0.00 0.00 0.00 69 1014.4
20260903193058 75 360 6.0 13.0 0.00 0.00 0.00 69 1014.4
20260903191602 75 266 5.0 12.0 0.00 0.00 0.00 70 1014.4
20260903190104 75 360 7.0 13.0 0.00 0.00 0.00 69 1014.7
20260903184603 75 229 6.0 13.0 0.00 0.00 0.00 69 1014.9
20260903183101 75 223 5.0 13.0 0.00 0.00 0.00 68 1015.2
20260903181554 75 360 7.0 12.0 0.00 0.00 0.00 69 1015.2
20260903180108 76 240 6.0 11.0 0.00 0.00 0.00 68 1015.2
20260903174558 76 226 4.0 10.0 0.00 0.00 0.00 67 1015.4
20260903173056 76 232 4.0 8.0 0.00 0.00 0.00 68 1015.2
20260903171614 79 0 2.0 7.0 0.00 0.00 0.00 63 1015.1
20260903170100 79 130 2.0 8.0 0.00 0.00 0.00 61 1015.2
20260903164604 78 148 4.0 8.0 0.00 0.00 0.00 63 1015.1
20260903163101 76 291 1.0 8.0 0.00 0.00 0.00 66 1015.2
20260903161600 77 109 5.0 8.0 0.00 0.00 0.00 65 1015.1
20260903160106 76 0 2.0 4.0 0.00 0.00 0.00 65 1015.4
20260903154606 74 82 2.0 5.0 0.00 0.00 0.00 67 1015.3
20260903153110 73 78 2.0 5.0 0.00 0.00 0.00 67 1015.5
20260903151611 72 59 2.0 6.0 0.00 0.00 0.00 68 1015.4
20260903150110 70 78 2.0 6.0 0.00 0.00 0.00 71 1015.5
20260903144601 68 55 2.0 4.0 0.00 0.00 0.00 75 1015.4
20260903143107 66 55 2.0 4.0 0.00 0.00 0.00 77 1015.2
20260903141557 66 55 1.0 4.0 0.00 0.00 0.00 79 1015.1
20260903140109 64 54 3.0 5.0 0.00 0.00 0.00 80 1014.9
20260903134601 63 51 2.0 4.0 0.00 0.00 0.00 83 1014.6
20260903133103 62 51 1.0 4.0 0.00 0.00 0.00 84 1014.5
20260903131607 63 51 1.0 3.0 0.00 0.00 0.00 84 1014.4
20260903130056 62 51 0.0 3.0 0.00 0.00 0.00 83 1014.5
20260903124600 62 51 0.0 3.0 0.00 0.00 0.00 83 1014.4
20260903123059 63 51 1.0 3.0 0.00 0.00 0.00 83 1014.4
20260903121555 63 51 1.0 4.0 0.00 0.00 0.00 83 1014.4
20260903114603 63 42 2.0 3.0 0.00 0.00 0.00 84 1014.5
20260903113058 62 42 3.0 4.0 0.00 0.00 0.00 84 1014.4
20260903111556 62 41 2.0 3.0 0.00 0.00 0.00 83 1014.5
20260903110100 63 44 3.0 4.0 0.00 0.00 0.00 83 1014.5
20260903104557 63 57 3.0 4.0 0.00 0.00 0.00 83 1014.7
20260903103059 63 63 3.0 4.0 0.00 0.00 0.00 83 1014.7
20260903101602 63 80 2.0 3.0 0.00 0.00 0.00 82 1014.9
20260903100056 64 84 2.0 3.0 0.00 0.00 0.00 82 1015.0
20260903094634 64 85 1.0 3.0 0.00 0.00 0.00 82 1015.2
20260903093054 64 86 1.0 4.0 0.00 0.00 0.00 83 1015.3
20260903091601 64 86 1.0 3.0 0.00 0.00 0.00 82 1015.4
20260903090052 65 86 2.0 4.0 0.00 0.00 0.00 82 1015.3
20260903084600 65 88 3.0 6.0 0.00 0.00 0.00 82 1015.4
20260903083057 65 109 2.0 4.0 0.00 0.00 0.00 82 1015.5
20260903081555 65 112 1.0 3.0 0.00 0.00 0.00 82 1015.5
20260903080101 65 112 1.0 6.0 0.00 0.00 0.00 82 1015.5
20260903074607 65 208 1.0 3.0 0.00 0.00 0.00 82 1015.6
20260903073102 66 230 1.0 2.0 0.00 0.00 0.00 82 1015.5
20260903071602 65 231 1.0 3.0 0.00 0.00 0.00 82 1015.6
20260903070057 66 0 0.0 2.0 0.00 0.00 0.00 81 1015.5
20260903064608 66 233 1.0 2.0 0.00 0.00 0.00 81 1015.7
20260903063102 66 234 0.0 2.0 0.00 0.00 0.00 81 1015.6
20260903061601 66 0 0.0 2.0 0.00 0.00 0.00 81 1015.7
20260903060105 67 234 0.0 2.0 0.00 0.00 0.00 80 1015.8
20260903054613 66 236 0.0 1.0 0.00 0.00 0.00 80 1015.9
20260903053107 66 0 0.0 1.0 0.00 0.00 0.00 81 1016.0
20260903051604 66 0 0.0 0.0 0.00 0.00 0.00 80 1016.0
20260903050106 66 0 0.0 0.0 0.00 0.00 0.00 80 1016.0
20260903044602 67 0 0.0 2.0 0.00 0.00 0.00 81 1015.9
20260903043105 66 0 0.0 0.0 0.00 0.00 0.00 81 1015.9
20260903041609 66 0 0.0 0.0 0.00 0.00 0.00 79 1015.8
20260903040126 67 0 0.0 0.0 0.00 0.00 0.00 79 1015.7
20260903034602 67 0 0.0 0.0 0.00 0.00 0.00 78 1015.5
20260903033106 68 0 0.0 1.0 0.00 0.00 0.00 80 1015.6
20260903031604 68 0 0.0 2.0 0.00 0.00 0.00 79 1015.3
20260903030058 68 0 0.0 2.0 0.00 0.00 0.00 79 1015.1
20260903024552 69 0 0.0 3.0 0.00 0.00 0.00 79 1015.1
20260903023103 69 236 0.0 3.0 0.00 0.00 0.00 79 1015.0
20260903021600 69 0 0.0 3.0 0.00 0.00 0.00 77 1015.0
20260903020058 70 238 1.0 7.0 0.00 0.00 0.00 75 1015.1